Webcams

EDPO Webcam Blick Richtung Osten (local time)

Webcam

Info zum Bild:

  • Blick zum Kloster Mariahilf, Entfernung ca. 3km
  • Blick zur Kirche St. Johannes, Entfernung ca. 1km
  • Blick zu den beiden Windrädern, Entfernung ca. 6km

EDPO Webcam Blick Richtung Westen (local time)

Webcam

Info zum Bild:

  • Blick zum Tyrolsberg, Entfernung ca. 3,5km

Dillberg Webcam Blick Richtung Westen zum Sender (local time)

Webcam

Info zum Bild:

  • Blick zum Dillberg Sender, Entfernung ca. 0,6 km
  • Höhe 2.716 ft über MSL Hindernis Höhe Sender (laut ICAO Karte)
  • Höhe 1.322 ft über EDPO Höhe Sender
  • Nord Platzrundenhöhe EDPO 2.200 ft

Dillberg Webcam Blick Richtung Osten zu EDPO (local time)

Webcam

Info zum Bild:

  • Blick vom Dillberg Richtung Neumarkt, Höhe 555ft über EDPO

Sparkasse Webcam Blick Richtung Nord-West über Neumarkt


Snapshot

Info zum Bild:

Nürnberger Fernsehturm (Rundum CAM)


METAR Informationen der nächstgelegenen Flughäfen


EDDN / Flughafen Nürnberg „Albrecht Dürer“

EDDN 201250Z VRB04KT 9999 SCT045 16/05 Q1015 TEMPO 33008KT SHRA SCT025CB

ETIC / Fliegerhorst Grafenwöhr AAF

ETIC 201156Z AUTO 31004KT 9999 FEW038 SCT080 12/06 A2998 RMK AO2 RAE03DZB03E06 SLP159 P0000 60000 T01220056 10130 20015 57009 $

ETIH / Fliegerhorst Hohenfels AAF

ETIH 201156Z AUTO 33005KT 9999 FEW034 SCT043 SCT055 BKN090 13/M08 A2999 RMK AO2 SLP162 70005 T01301077 10130 20058 58008 $